RH
4 6 7 12 19 17 17 22 31 42 49 64 84 87 88 84 62 52 69 83 90 97 89 81 84 86 90 94 99 97 90 87 83 84 89 81 79 75 57 53 57 51 43 42 42 30 17 13 11 9 10 12 12 11 9 9 11 11 11 10 11 14 16 18 17 15 16 15 14 15 17 25 34 31 25 30 30 15 12 17 16 15 15 15 21 22
4 5 5 5 13 17 19 25 32 42 46 60 92 100 96 98 78 65 79 82 86 98 93 84 80 78 84 88 94 99 94 91 86 88 93 87 90 91 73 58 52 49 44 44 50 43 26 17 12 9 12 14 13 11 9 8 9 10 10 10 10 11 14 17 18 16 15 15 14 13 13 16 27 32 24 27 33 18 10 16 16 15 14 15 20 20
5 4 5 4 6 12 16 23 31 41 44 53 83 97 94 97 89 81 84 85 91 95 93 91 80 73 79 81 90 99 98 97 94 92 96 92 88 89 85 73 56 52 54 52 58 56 40 27 16 9 10 12 12 11 11 10 9 10 9 10 10 9 12 14 17 17 15 15 13 12 13 12 16 26 26 25 30 23 12 14 18 17 13 13 16 17
5 4 5 6 5 6 11 18 27 37 44 50 70 87 91 92 90 82 80 90 97 90 89 93 84 75 74 78 90 97 97 100 98 92 93 94 90 86 86 79 65 60 61 61 63 59 47 36 25 15 9 9 11 11 11 11 10 10 9 9 10 9 9 12 15 17 16 16 15 12 13 12 11 19 26 25 26 23 15 16 23 20 13 13 13 12
4 5 5 6 6 4 6 12 21 32 41 47 62 81 90 88 81 78 84 97 97 87 88 92 86 78 72 77 90 96 96 98 97 94 92 90 87 86 82 74 70 67 63 64 64 58 48 40 32 23 14 8 9 9 10 10 9 9 9 9 9 9 8 9 12 15 16 16 16 14 12 12 11 14 22 24 24 22 17 17 20 18 14 17 17 12
4 5 6 6 6 6 4 6 13 24 34 42 55 70 83 90 85 83 90 96 94 89 90 92 88 82 76 77 84 91 95 97 97 94 92 92 89 87 82 76 77 76 67 63 59 54 49 44 37 30 21 13 10 8 8 9 8 7 9 9 9 9 9 9 10 12 14 15 15 15 12 12 11 12 17 22 24 23 21 18 17 16 16 21 24 17
6 4 6 6 6 7 6 5 7 14 25 33 46 60 77 94 92 88 87 83 82 83 87 89 87 85 82 79 80 83 86 91 98 95 90 93 95 89 84 81 83 80 73 65 54 47 47 51 51 46 36 23 14 11 8 8 8 7 7 8 9 10 9 9 9 10 13 14 15 15 13 11 11 12 13 18 23 24 24 21 18 19 18 20 26 20
9 6 6 6 6 7 6 7 5 6 15 23 33 49 71 89 92 90 87 79 74 75 80 80 78 83 84 80 78 75 75 79 88 95 93 91 92 87 81 83 84 81 78 74 61 52 52 58 62 62 56 41 24 17 12 8 8 8 7 7 8 10 11 10 9 9 11 13 14 15 15 13 11 11 11 14 19 23 25 23 19 23 22 22 29 24
11 8 7 6 5 7 6 7 7 4 8 13 21 41 63 75 80 85 84 84 87 84 82 77 73 80 82 77 73 70 76 80 81 93 98 92 88 87 88 90 86 80 81 81 72 62 62 63 63 63 63 57 40 25 17 12 8 8 7 6 7 9 10 10 10 9 10 12 14 15 16 15 11 10 11 11 15 21 25 26 22 25 24 23 31 30
15 9 8 8 5 7 7 7 9 6 4 7 18 49 74 70 70 83 84 87 98 94 87 81 74 78 77 70 70 71 80 90 90 94 96 92 90 88 91 95 89 81 79 81 77 69 65 65 63 61 61 61 49 32 23 18 11 9 8 6 6 9 11 11 11 10 10 10 12 15 15 16 13 11 10 10 13 17 22 27 25 26 27 24 31 33
27 19 9 10 7 6 9 8 9 9 6 7 18 45 68 64 67 88 89 86 96 94 91 87 76 74 71 62 64 67 73 85 91 91 89 89 93 90 89 91 87 79 74 75 75 70 66 65 62 61 60 59 52 39 31 27 17 10 10 9 6 8 10 12 12 11 11 10 11 14 15 16 14 12 11 10 11 14 19 25 25 27 33 29 30 31
41 40 18 11 11 11 14 7 6 13 12 11 21 38 51 51 54 72 81 87 97 91 88 93 86 81 76 64 62 61 61 71 79 82 80 79 85 92 94 93 86 79 74 72 72 69 70 69 63 62 63 61 58 49 43 43 35 22 14 9 7 8 9 11 14 14 13 12 11 12 13 15 15 12 12 10 11 13 15 22 24 27 35 33 28 26
61 67 44 24 16 13 12 7 14 31 26 14 23 39 50 52 48 49 64 87 97 83 79 94 95 87 81 74 69 62 55 59 67 73 76 71 71 79 89 95 93 85 78 74 74 74 74 72 67 65 64 62 64 61 53 54 53 44 33 18 7 7 7 9 12 15 16 14 11 11 12 14 15 13 12 10 10 12 13 19 23 26 32 32 27 24
76 85 75 49 27 14 11 11 23 39 31 12 21 39 46 58 62 46 48 74 84 73 75 92 93 86 85 79 71 67 59 54 58 66 73 73 71 71 77 89 94 88 83 79 77 74 73 75 74 72 66 60 64 66 61 60 57 50 48 37 19 9 6 6 8 11 15 16 12 9 10 13 14 13 11 10 10 11 12 16 21 24 28 31 29 24
73 85 83 59 38 25 20 18 23 37 33 9 22 51 47 52 70 58 49 64 70 67 77 88 87 84 85 77 72 76 67 55 57 67 74 75 75 74 77 89 95 90 87 84 78 73 72 75 74 73 71 65 61 63 68 77 73 58 52 49 38 27 18 10 6 6 8 12 14 10 9 12 14 13 11 10 11 14 14 13 18 24 26 30 30 25
78 80 77 64 52 37 31 34 29 35 41 17 22 60 57 47 62 61 55 61 60 61 74 84 86 84 82 76 75 77 65 54 58 67 72 70 67 70 74 84 91 90 87 80 73 71 69 68 67 68 73 71 62 62 72 84 82 72 66 64 58 50 42 28 16 12 8 7 11 11 9 10 12 13 11 9 10 12 13 12 16 22 25 29 29 25
86 87 86 80 74 50 34 38 29 26 50 43 24 39 54 54 59 60 61 63 59 57 62 70 78 78 74 70 69 66 55 52 55 60 66 63 59 64 66 69 76 80 80 73 68 66 62 63 65 64 68 72 67 67 75 80 74 69 71 73 68 61 54 45 34 24 13 7 7 9 11 10 10 12 11 9 10 10 11 12 14 19 23 28 29 25
82 90 90 85 87 71 41 32 33 42 71 77 43 29 48 62 64 67 74 71 64 62 57 54 61 70 73 66 63 61 51 47 50 53 60 62 60 63 61 60 62 65 69 70 68 63 60 60 59 54 56 64 69 70 73 77 73 68 68 68 67 62 54 50 48 38 22 15 12 7 8 10 9 12 11 9 9 9 11 12 13 16 21 27 29 26
79 83 87 87 89 84 56 34 43 58 72 87 75 52 54 70 73 73 78 74 65 64 63 55 51 56 61 57 54 54 50 49 50 47 53 62 65 60 53 52 56 58 65 70 67 61 59 58 54 50 51 62 75 77 73 74 74 74 76 72 69 66 56 51 57 54 39 29 25 15 9 10 10 10 11 10 10 10 12 13 13 14 18 25 30 28
84 83 91 96 89 87 73 51 52 53 50 76 94 74 61 71 74 69 73 75 67 64 67 63 54 48 47 43 38 38 38 36 36 39 48 56 57 53 48 49 53 53 55 58 56 58 63 63 57 58 68 81 90 86 80 79 78 80 83 78 73 71 64 58 61 61 51 41 37 28 15 9 9 10 11 10 10 11 12 12 13 13 15 21 27 29
89 85 92 98 90 89 82 66 62 50 41 70 97 82 57 52 59 63 68 71 67 71 72 62 57 58 57 48 39 42 45 29 16 24 36 40 41 44 47 49 49 46 45 44 40 42 56 66 65 68 82 93 94 88 84 84 86 89 89 82 76 73 71 67 65 65 56 41 39 39 28 15 9 9 10 10 10 12 13 14 13 13 13 16 23 28
96 89 91 98 92 85 78 71 65 47 44 75 97 83 55 41 52 67 71 69 69 77 77 65 60 63 64 58 51 62 77 63 36 27 30 33 35 37 41 45 47 43 41 40 35 34 47 61 64 68 80 88 89 89 88 84 84 87 88 86 81 77 74 70 68 66 54 40 38 42 39 27 15 9 8 8 10 11 12 14 14 14 14 14 18 25
97 91 90 95 91 83 73 66 62 50 46 63 77 78 67 55 55 61 69 76 76 75 77 76 74 70 69 65 56 60 74 74 61 49 46 50 48 44 42 44 48 45 38 42 49 50 50 50 54 62 71 77 80 84 84 78 75 77 80 85 85 80 74 68 69 68 54 43 40 39 38 30 21 18 13 8 9 11 12 15 14 13 14 14 15 19
91 86 88 88 83 81 73 61 61 59 53 55 60 66 70 71 65 58 64 74 72 71 74 76 77 76 70 61 54 58 62 62 65 64 60 60 57 51 47 44 48 48 44 50 57 52 37 28 36 52 61 65 71 78 82 75 69 68 73 81 86 83 73 67 70 70 61 51 47 48 45 31 23 24 19 11 11 11 9 11 14 15 13 13 14 15
91 86 88 85 76 75 73 66 62 57 52 51 49 51 63 78 78 70 70 71 67 68 70 67 69 72 69 61 58 65 66 61 65 66 63 62 60 57 52 46 47 51 52 56 56 49 35 23 26 40 50 57 64 74 83 82 72 67 66 71 83 86 76 69 71 70 65 61 61 63 59 50 49 45 32 28 33 31 22 12 9 13 14 13 14 14
93 87 83 79 74 73 74 72 64 56 48 39 35 48 69 79 76 73 74 73 70 68 65 62 64 66 68 69 66 66 68 68 67 64 60 60 61 61 58 52 51 53 53 56 57 54 47 36 31 35 42 49 57 65 76 82 76 69 63 62 74 82 76 74 78 75 68 65 65 65 65 66 70 65 56 57 61 60 52 33 15 10 10 11 13 13
90 86 82 78 71 69 76 77 67 60 50 34 32 53 73 74 73 77 76 73 73 69 65 65 65 63 66 70 70 74 79 78 70 64 62 61 62 64 64 58 54 53 52 55 59 60 57 50 43 41 39 41 46 52 62 72 74 72 66 59 62 70 72 74 79 76 72 70 65 65 69 66 63 66 68 66 64 64 62 57 46 27 13 10 11 11
92 90 91 87 73 68 75 76 69 64 55 41 38 55 71 71 71 75 72 70 71 70 70 70 66 67 71 72 71 75 80 75 64 61 62 62 62 64 65 60 53 54 56 58 60 62 63 61 57 52 45 37 35 36 42 56 66 70 69 63 58 58 61 69 76 76 74 74 69 66 69 64 61 65 63 56 62 70 67 71 73 55 33 19 11 9
96 96 97 94 82 78 79 75 74 72 63 49 37 42 58 63 64 67 66 65 68 69 71 71 67 68 73 74 68 65 67 64 57 58 59 58 59 60 61 58 52 54 62 64 64 65 65 67 67 62 51 42 40 39 42 52 61 66 69 67 62 56 53 59 68 74 78 79 75 69 68 67 68 72 65 56 64 73 73 79 83 75 56 32 19 20
94 98 100 97 86 81 81 82 84 76 66 59 46 37 44 51 59 63 60 62 67 69 69 68 67 68 68 71 68 61 62 61 55 55 56 54 56 58 60 59 51 54 64 68 68 69 70 70 71 66 53 41 39 41 43 47 52 60 66 66 64 59 54 53 56 62 76 86 83 76 73 74 79 85 80 70 67 71 77 82 83 82 68 38 25 32
85 91 95 92 81 76 75 81 84 74 64 65 60 48 37 37 44 45 45 57 67 69 67 61 60 63 62 65 66 62 63 65 59 57 59 59 60 63 66 63 53 54 64 72 74 76 76 73 71 69 60 47 40 38 36 35 37 47 56 61 64 58 54 57 57 57 69 85 87 83 80 80 83 87 86 82 82 85 86 86 84 86 78 48 26 29
70 72 75 73 69 68 65 64 69 71 70 70 69 61 46 36 38 37 42 58 63 63 65 58 50 55 58 59 60 58 58 60 60 59 59 61 64 67 71 68 58 54 59 67 75 79 79 76 72 69 65 59 56 52 45 37 34 40 45 50 59 59 56 60 60 57 62 72 79 82 86 89 89 88 87 91 93 89 81 81 82 82 80 65 42 33
63 61 62 60 58 59 58 57 62 70 78 81 80 76 63 51 44 36 39 52 52 47 55 58 52 52 54 54 55 56 56 55 60 65 64 62 63 66 70 69 61 55 52 55 62 69 74 75 71 67 64 62 61 59 55 48 42 42 41 41 48 55 58 61 61 58 57 60 65 70 75 82 88 89 88 89 87 80 72 70 72 75 79 76 63 52
58 59 60 59 58 58 58 63 67 70 80 89 88 84 76 64 52 44 48 58 53 38 36 46 49 43 41 45 46 48 50 51 57 63 65 66 67 66 69 70 63 57 52 50 52 56 63 67 65 63 63 62 60 60 59 55 50 49 46 43 43 45 49 54 57 58 56 55 59 60 58 61 72 81 84 82 81 83 81 74 71 77 82 82 76 67
47 51 54 56 60 63 66 72 73 70 74 80 81 83 84 76 66 64 65 60 48 32 24 30 35 32 36 45 43 38 40 43 46 48 49 57 68 70 70 70 67 60 54 49 47 49 55 58 58 58 57 58 58 58 57 56 54 51 48 45 44 42 41 42 45 50 52 52 54 57 56 54 56 62 71 76 80 86 87 80 78 83 85 82 77 72
47 48 50 51 54 59 69 79 79 73 68 66 69 81 89 85 82 85 79 61 45 34 25 23 24 26 35 40 33 27 28 30 31 31 32 43 60 68 67 66 66 63 58 52 46 44 47 50 51 52 52 52 52 53 53 53 52 51 49 45 42 40 39 36 36 41 46 47 47 49 52 52 51 53 62 71 74 77 79 78 81 88 90 83 76 74
54 54 51 49 50 51 59 70 74 72 69 65 66 78 89 93 96 99 90 73 59 49 38 28 23 26 33 31 21 19 24 27 25 20 21 34 47 51 53 54 56 57 56 55 50 45 43 42 42 43 45 45 45 45 45 47 47 47 47 46 43 41 38 34 33 36 40 43 44 43 43 45 47 49 58 67 67 66 71 75 76 81 88 90 86 83
44 49 50 51 52 52 54 60 62 64 69 72 68 70 77 84 92 99 95 83 69 61 58 50 38 34 38 36 28 18 18 34 43 33 27 36 42 42 41 40 43 50 55 58 56 49 45 41 38 37 38 37 38 38 38 39 41 41 42 43 44 43 39 36 34 34 36 39 40 40 38 38 38 37 42 53 57 57 66 76 76 74 79 84 87 88
26 31 37 42 45 48 51 54 55 54 57 62 61 61 67 73 78 87 91 84 70 62 64 63 56 50 46 46 45 32 22 38 59 53 39 37 38 41 42 40 42 49 55 60 59 52 45 42 39 38 37 33 31 32 33 33 34 34 35 35 37 39 39 37 36 34 34 36 37 37 37 35 34 31 28 31 34 37 48 63 69 71 76 80 80 82
18 20 22 25 28 32 37 45 53 54 52 53 55 59 67 74 75 76 78 73 63 59 62 64 62 61 57 54 58 55 44 42 47 43 35 33 35 41 46 44 43 45 49 55 56 51 47 44 41 40 39 34 29 28 29 30 29 29 29 29 30 32 33 33 33 33 32 33 34 35 36 34 33 31 28 24 22 22 27 37 47 57 70 80 83 81
15 16 16 18 19 19 21 27 38 46 49 51 53 56 63 71 74 75 75 70 63 60 62 62 60 60 62 61 62 66 63 52 39 28 24 29 39 48 52 51 49 50 53 55 52 50 50 49 45 43 40 35 32 28 26 26 25 24 24 25 25 26 27 27 29 29 29 31 32 31 32 33 31 29 27 26 23 19 17 19 24 33 44 56 68 76
14 14 14 17 18 18 17 17 21 29 37 42 45 49 55 60 65 69 72 70 67 62 59 58 57 59 64 66 67 69 67 58 44 30 24 32 47 57 62 62 59 59 62 61 55 51 52 51 48 45 41 37 34 30 27 25 23 21 20 20 20 21 22 22 23 24 25 26 28 28 28 29 28 27 25 24 22 20 17 14 13 15 20 27 39 54
21 18 17 18 21 21 20 17 15 16 21 26 32 37 43 47 52 57 61 64 67 67 64 61 59 59 61 64 69 72 68 60 51 40 34 44 59 67 69 66 60 57 59 58 56 54 52 49 46 44 42 38 34 31 27 24 21 20 18 17 17 16 16 17 18 19 20 20 21 23 23 23 24 24 23 22 21 19 17 15 12 11 11 13 18 29
28 27 26 26 24 23 23 21 18 15 14 16 18 22 28 35 40 43 46 50 54 58 63 66 64 60 57 56 59 65 67 67 68 63 56 55 60 65 69 67 61 56 53 50 49 51 50 48 45 42 41 39 34 30 28 24 21 18 16 15 15 14 13 13 13 13 14 15 16 16 17 18 19 19 20 20 19 18 16 14 13 11 11 10 10 13
31 28 28 32 31 27 25 24 21 17 16 15 14 15 18 25 31 34 37 41 43 44 49 56 57 55 55 54 53 55 59 63 68 71 69 62 57 58 64 65 62 58 52 46 43 43 43 44 44 41 39 37 34 31 28 26 23 19 17 15 13 12 12 12 11 12 11 12 12 12 12 13 13 14 15 15 16 16 15 13 12 11 10 9 8 8
33 26 26 35 39 35 33 33 30 25 22 19 18 19 20 21 23 26 30 35 39 40 39 41 42 42 44 49 51 52 54 55 56 58 59 57 55 55 56 55 54 53 49 45 44 43 40 39 39 39 37 34 33 31 29 28 26 23 21 18 15 14 13 12 12 12 11 11 12 12 12 11 11 10 11 11 12 12 12 12 12 11 10 9 8 8
34 35 36 40 43 45 48 46 38 32 27 22 20 22 24 25 25 25 25 27 32 37 38 37 39 36 34 36 42 44 47 50 50 50 51 49 49 50 49 47 47 46 43 41 41 41 40 38 36 36 35 32 30 29 29 28 28 27 25 23 21 18 17 15 15 14 13 13 13 12 13 13 12 11 10 10 10 10 10 10 10 9 9 9 7 7
33 34 35 38 42 47 50 47 42 39 35 29 25 25 26 30 34 33 31 29 29 33 34 34 38 43 43 38 35 35 37 39 40 43 45 46 46 45 44 43 43 41 39 37 36 35 36 36 35 35 34 33 31 29 29 29 29 29 28 26 25 24 22 21 20 19 18 17 15 15 15 14 14 15 14 12 11 10 10 10 9 9 9 9 8 7
28 24 24 30 37 40 39 40 48 59 59 48 40 36 32 33 36 35 31 27 25 26 29 29 31 38 42 39 33 31 30 30 30 31 32 36 39 40 39 40 39 38 37 35 33 32 31 31 31 31 31 31 31 30 30 30 29 30 30 28 27 27 27 26 25 24 23 22 20 19 17 16 16 17 16 16 15 13 12 11 10 10 9 8 9 8
25 23 24 27 33 36 36 36 45 60 68 63 58 54 47 40 37 36 34 27 19 16 21 27 30 31 31 29 27 27 26 25 25 26 26 25 26 28 30 32 32 33 34 33 32 32 30 28 28 28 27 27 27 27 27 28 28 28 28 28 28 28 27 27 27 26 26 25 24 23 22 21 20 19 18 18 17 16 15 14 12 11 11 9 9 8
24 26 30 33 34 36 36 36 37 43 51 59 65 67 63 53 44 43 45 41 31 21 17 20 25 28 28 25 21 21 21 19 18 21 23 23 21 21 21 22 23 23 25 27 27 28 28 28 27 25 24 23 23 23 23 23 23 24 24 24 25 25 25 25 25 25 25 25 25 25 24 23 22 21 20 20 20 19 18 17 16 14 13 12 10 9
Wind_Speed
34 36 38 38 34 31 28 25 23 23 23 21 16 11 3 11 16 14 14 14 11 12 12 10 10 9 6 7 15 20 21 21 20 19 20 18 16 14 14 14 14 13 12 11 10 9 8 9 10 10 11 13 13 13 13 12 11 11 11 11 11 10 8 7 7 6 6 5 6 6 5 6 6 6 7 8 8 8 8 8 9 9 9 9 9 9
36 36 36 36 35 33 30 27 25 24 24 24 22 20 14 12 18 15 14 14 12 12 11 9 11 10 8 7 11 20 21 21 21 19 19 18 16 16 15 13 13 12 11 11 9 9 9 8 9 10 11 12 13 13 13 13 12 12 11 11 11 11 9 8 7 6 6 5 5 5 5 5 6 6 6 7 6 7 7 7 8 8 8 8 8 8
38 36 33 32 34 35 33 31 28 25 25 23 24 24 19 20 21 19 16 13 13 15 11 8 11 13 10 7 9 18 20 21 23 22 21 19 18 18 15 11 12 10 9 10 9 9 10 9 9 9 10 11 12 13 13 13 13 12 12 11 11 11 10 9 8 7 6 5 5 5 4 4 5 6 6 6 6 6 6 6 7 7 7 7 7 7
38 36 33 31 33 36 36 34 30 29 27 24 26 27 20 22 23 19 15 11 14 15 13 11 12 14 12 7 9 17 20 23 25 23 22 20 20 20 17 13 12 11 9 10 10 9 10 10 9 9 9 10 11 12 13 13 13 13 13 12 12 11 11 10 9 7 6 5 5 4 4 4 4 5 5 6 6 6 6 6 6 6 6 6 6 5
38 36 34 32 33 34 36 36 33 32 30 27 30 31 23 21 20 16 15 14 15 14 13 13 13 14 13 9 10 14 18 23 24 23 22 21 21 20 17 15 14 12 11 11 11 10 10 10 10 10 9 9 10 11 12 12 13 13 13 13 12 11 11 11 10 9 7 5 4 3 3 3 4 5 5 6 6 6 6 6 5 5 5 5 5 4
37 36 36 35 34 33 34 36 36 34 33 31 30 28 25 21 16 15 17 17 14 10 10 11 10 11 12 11 10 10 13 18 21 21 21 20 22 20 17 16 16 14 12 11 11 11 10 11 10 9 9 9 9 9 10 11 11 12 12 13 13 12 11 11 11 10 9 7 5 4 3 3 3 5 6 6 6 6 6 6 6 5 5 5 4 4
38 36 36 37 35 34 33 34 36 37 36 35 31 26 25 20 13 14 15 12 9 8 10 10 8 8 10 11 11 10 11 13 15 19 20 20 22 22 19 18 17 15 13 12 12 11 10 9 9 8 8 9 10 9 9 10 10 11 11 13 13 12 12 12 12 12 11 9 7 5 4 4 4 4 5 6 6 6 6 6 6 6 5 5 4 4
36 35 36 38 37 36 34 33 37 39 38 38 34 30 26 16 12 17 15 7 6 8 8 8 9 9 10 12 11 11 12 11 11 15 19 19 20 21 20 19 19 16 14 14 12 11 9 9 9 8 8 8 9 9 9 9 10 10 11 12 14 13 12 13 13 13 12 10 7 6 5 4 4 4 5 5 6 5 5 5 6 6 6 5 5 5
35 35 36 37 36 37 36 34 35 37 38 38 34 30 28 20 15 18 16 9 7 10 11 10 10 9 12 13 11 11 10 9 10 12 16 18 18 18 17 18 20 18 15 15 13 12 10 10 10 9 8 7 8 9 9 9 9 9 10 11 13 14 13 13 13 13 12 11 9 7 5 4 4 4 4 5 5 5 5 5 5 6 6 6 6 6
35 35 34 34 37 38 37 35 33 35 37 36 33 32 33 31 22 16 15 13 15 13 14 15 14 11 12 13 10 10 8 7 10 11 12 13 14 16 16 16 20 19 16 15 14 13 12 11 12 12 10 7 7 8 8 8 8 8 9 10 12 14 15 14 14 14 13 12 11 8 6 5 4 4 4 5 5 5 5 5 5 5 5 5 7 7
33 33 33 33 37 36 33 33 33 36 35 34 36 37 36 37 31 21 17 18 19 18 15 16 15 13 13 12 10 11 10 9 11 11 11 10 11 14 16 17 20 20 18 16 16 15 14 13 13 12 10 8 8 8 7 7 8 8 9 9 10 13 14 15 14 14 14 14 13 10 7 6 5 5 5 5 5 5 5 5 5 5 5 5 6 7
26 24 29 33 35 33 32 36 35 35 33 32 36 38 33 33 35 31 22 20 23 23 18 16 15 16 16 16 14 14 14 13 13 12 12 12 11 12 15 18 20 20 19 18 17 16 15 14 13 12 11 9 8 8 8 8 8 8 9 10 11 12 14 15 15 15 15 15 14 12 9 7 7 6 5 5 5 5 5 5 5 5 5 4 5 6
21 17 24 32 35 35 38 40 36 32 31 33 36 36 30 25 30 34 28 24 25 24 22 19 17 21 21 21 21 20 17 15 14 13 12 13 13 11 13 15 17 20 19 18 17 16 14 14 14 13 12 11 10 9 9 9 9 10 10 11 11 11 13 14 15 16 15 15 15 14 11 9 8 7 6 6 6 6 7 6 6 6 6 5 5 5
26 21 22 30 35 37 41 40 38 35 33 36 37 34 31 26 27 33 33 30 26 21 24 23 21 24 26 27 27 23 20 18 16 14 13 12 10 11 13 11 13 17 18 18 16 14 13 13 14 14 14 13 12 12 12 12 12 11 10 10 11 11 11 12 14 15 16 16 15 14 13 10 9 8 7 6 6 7 8 8 8 7 7 6 5 6
30 31 28 32 35 38 40 37 37 35 31 36 36 31 32 32 29 30 32 33 29 24 24 20 21 26 26 27 27 24 23 22 18 15 14 13 10 11 14 12 11 13 15 16 14 12 12 13 13 13 15 15 14 14 14 13 12 11 9 9 10 10 10 11 12 13 15 16 16 15 14 12 10 9 8 7 7 8 8 9 9 9 9 8 7 6
25 31 28 25 27 35 37 33 34 33 29 33 35 32 32 34 33 28 26 27 27 27 26 19 23 28 25 25 26 26 26 24 21 17 16 17 15 13 15 16 15 14 13 13 12 12 14 15 13 12 14 16 16 14 14 13 12 12 14 13 11 10 10 10 10 11 12 14 15 15 15 14 11 10 10 8 8 8 9 10 10 10 10 9 8 8
24 26 23 19 21 29 33 32 35 34 29 30 35 36 32 31 29 21 15 15 16 23 30 27 26 29 29 28 26 27 28 26 23 20 18 19 18 16 14 15 18 18 15 14 13 14 16 15 14 14 14 16 17 14 14 15 14 15 17 17 14 12 11 11 11 11 11 12 14 15 16 15 13 11 10 9 7 8 9 10 10 11 11 11 10 9
29 25 22 19 16 22 28 33 35 32 28 26 31 35 29 25 25 21 16 16 13 17 27 30 29 30 30 29 28 28 27 25 23 21 20 19 17 16 15 13 15 17 17 15 15 16 16 15 16 17 18 19 18 15 14 15 13 13 16 18 17 15 14 14 13 12 11 10 12 14 16 16 15 13 11 9 8 8 9 10 11 11 12 11 10 10
31 26 21 21 19 19 23 32 37 35 32 27 27 31 28 26 28 29 26 23 20 20 27 29 29 31 31 30 30 30 28 27 26 22 20 18 16 16 16 14 14 14 17 17 16 16 17 17 19 21 22 22 18 14 13 13 12 12 15 19 20 18 16 15 15 13 12 10 10 12 15 16 16 14 12 10 8 8 9 10 11 12 12 12 11 11
32 30 25 23 24 22 22 33 39 39 36 32 29 32 34 33 33 33 31 28 24 23 26 28 28 31 33 30 28 31 34 34 30 23 19 18 18 18 17 17 16 14 17 19 18 17 18 20 22 21 19 18 14 10 10 10 10 12 16 18 20 20 19 17 15 15 14 12 10 11 13 16 17 16 14 12 9 8 10 10 11 12 12 13 12 12
32 33 30 26 27 26 28 37 41 39 37 32 30 34 38 39 34 32 32 30 25 20 23 28 29 30 31 28 27 33 37 36 33 29 25 23 22 20 18 18 19 18 18 18 20 20 19 20 20 15 11 11 10 10 10 8 8 12 15 17 19 20 20 18 17 17 16 14 13 12 14 16 17 18 17 14 11 9 9 10 11 12 12 13 14 13
33 33 29 23 22 23 27 37 42 40 37 35 36 37 37 36 34 32 32 30 27 21 21 27 29 28 28 28 29 33 32 28 27 28 28 25 24 24 21 19 20 21 19 18 19 21 22 22 18 11 7 8 10 10 9 8 8 11 13 14 17 19 20 20 20 19 18 17 16 16 16 17 17 18 19 17 14 11 11 11 11 11 12 13 14 14
34 32 27 19 17 16 20 32 39 38 37 39 39 33 27 29 33 34 33 30 28 24 23 25 26 26 29 30 30 32 31 24 20 19 20 20 22 24 23 21 20 21 20 18 18 20 21 20 17 11 8 9 11 11 10 9 8 11 12 11 14 18 20 21 21 19 19 18 18 18 19 19 18 19 21 20 17 15 14 13 12 12 12 13 14 15
35 32 27 23 20 13 13 25 34 37 40 40 38 32 26 27 28 29 31 29 26 26 26 27 27 27 30 32 31 32 32 28 22 18 17 18 20 21 22 22 21 20 20 19 20 20 20 20 18 15 12 11 12 13 12 10 8 10 11 8 9 15 20 21 21 20 20 20 20 20 20 20 20 21 22 23 22 19 17 16 15 14 13 13 14 14
36 34 27 24 23 17 14 23 31 37 42 43 41 35 30 28 24 22 29 30 26 27 29 30 30 30 32 33 32 31 28 26 24 23 22 21 21 20 21 23 21 20 21 22 22 21 21 21 20 18 14 12 12 13 12 9 8 9 10 7 7 11 17 21 22 22 22 22 22 21 20 21 22 22 23 23 22 20 19 18 18 17 16 15 14 15
37 36 30 26 28 26 22 25 29 35 40 44 44 39 34 33 30 27 31 32 31 30 28 29 32 34 35 35 35 32 27 24 24 25 26 26 24 22 21 22 22 22 24 25 24 22 22 21 20 20 17 14 13 15 14 11 11 11 11 10 9 11 14 18 21 23 22 21 21 21 20 20 21 21 21 20 18 17 18 19 18 18 17 16 16 15
37 36 32 29 29 30 27 24 27 31 37 40 41 41 40 34 29 31 32 32 36 35 30 31 35 37 37 38 37 33 27 23 22 23 25 25 24 22 21 22 22 23 24 25 25 24 23 22 21 21 20 17 16 17 17 16 14 13 13 13 13 13 13 14 17 20 21 20 20 21 20 20 21 22 21 18 17 17 19 21 19 18 17 16 15 15
38 35 33 30 28 29 27 24 22 24 31 39 40 42 42 32 22 29 33 32 37 38 34 34 38 39 39 39 38 36 33 29 25 23 23 23 23 22 21 22 23 24 24 25 25 25 24 23 23 22 21 21 21 21 21 19 17 15 15 15 16 16 15 13 13 15 18 21 21 21 21 21 22 22 20 18 18 20 22 23 22 20 18 16 15 15
39 35 34 33 31 29 25 22 21 20 23 31 37 43 45 37 28 30 34 35 38 40 39 37 38 41 41 40 38 37 37 35 29 24 23 23 23 23 23 23 24 25 26 26 26 26 26 25 24 24 24 24 23 21 20 20 18 16 16 17 18 18 18 15 11 11 14 18 20 20 20 21 22 21 19 19 20 22 24 25 24 22 18 16 15 15
41 38 37 36 36 33 29 24 23 23 22 22 29 37 41 42 40 39 39 39 40 42 44 43 42 43 44 43 40 37 37 36 33 27 24 24 25 23 23 24 24 26 27 28 27 27 27 26 26 26 26 26 25 23 21 20 20 19 18 18 18 19 20 18 14 12 11 15 19 20 21 22 22 21 21 22 23 23 25 26 26 23 18 15 15 14
44 42 40 40 39 38 37 32 27 27 28 26 28 32 36 41 45 45 43 42 44 45 45 46 46 46 46 45 42 40 38 35 33 29 24 23 24 22 21 24 26 27 28 28 28 28 28 28 27 27 27 28 28 27 26 24 23 23 22 21 20 20 20 19 17 15 13 13 16 20 21 22 22 22 22 23 24 24 24 24 24 23 19 16 15 15
44 45 44 44 43 41 42 40 35 31 31 30 30 32 34 40 45 46 43 42 46 48 47 48 49 47 47 46 45 43 40 37 35 33 28 24 23 20 20 23 26 29 30 31 31 31 30 29 29 29 29 29 28 28 28 28 27 26 25 25 24 22 21 20 18 18 17 16 16 17 18 19 20 21 21 20 21 22 22 22 21 22 21 19 17 17
39 41 43 44 43 41 40 39 38 36 33 32 32 31 33 37 42 45 45 43 46 49 48 48 50 49 49 49 48 45 42 38 35 33 31 29 26 23 21 22 25 28 30 32 33 33 33 32 31 31 30 30 30 29 29 30 30 29 28 28 28 27 25 24 22 21 21 20 19 18 17 16 17 17 18 19 21 22 22 23 22 21 22 22 19 18
31 35 38 39 38 39 38 36 36 38 37 36 35 33 33 34 36 40 43 44 46 49 49 48 49 50 50 51 52 49 45 40 36 33 31 30 29 28 25 23 23 25 28 31 33 34 35 35 34 33 33 32 32 31 31 31 31 31 31 31 31 31 30 29 28 26 24 23 22 21 20 19 18 16 16 18 20 20 20 21 21 21 22 22 20 20
24 26 30 33 33 34 35 34 33 36 39 40 38 35 34 34 34 36 41 44 45 47 49 50 49 49 49 49 50 49 47 44 40 37 34 32 31 31 30 28 26 25 26 29 32 34 36 36 36 35 35 34 34 33 33 33 32 33 34 34 33 33 33 33 32 31 29 28 26 25 24 22 21 20 19 19 18 17 17 17 19 20 22 23 22 22
21 22 24 26 28 30 30 31 32 34 37 39 39 38 38 37 33 31 35 39 41 42 46 49 50 50 49 48 47 47 46 46 45 43 40 37 34 33 32 33 33 32 30 30 31 33 35 37 37 37 36 36 35 35 35 35 35 35 35 36 36 36 35 35 35 34 33 32 31 30 28 27 26 25 24 22 20 19 18 18 17 18 20 23 24 24
20 22 23 23 25 27 28 29 31 34 36 38 38 40 41 40 36 32 33 37 37 36 39 43 47 50 49 49 50 49 47 46 47 48 45 41 39 37 36 35 36 36 36 34 34 34 35 36 38 38 39 39 38 37 36 36 36 36 36 37 37 38 38 38 37 37 36 35 34 33 32 31 29 28 27 25 22 21 21 20 20 19 20 21 23 25
19 21 22 22 24 25 26 26 28 31 34 35 36 38 40 42 40 38 37 39 39 36 34 36 41 46 48 48 49 51 50 46 45 46 45 42 40 41 40 39 39 38 37 36 37 37 37 37 38 38 40 41 41 40 39 38 38 38 38 38 39 39 40 40 39 39 38 38 37 37 36 35 33 32 31 28 25 24 23 22 23 23 23 23 23 24
18 20 21 22 24 25 25 26 28 30 32 32 32 33 35 38 41 40 39 41 42 40 36 35 38 41 44 44 45 48 51 48 44 44 44 42 41 41 41 41 41 39 37 36 37 38 39 40 40 40 40 42 42 42 41 41 40 41 41 41 41 41 41 42 42 41 41 41 40 39 39 38 38 36 35 33 31 29 27 26 26 26 26 26 25 24
16 19 20 21 22 24 24 25 28 30 31 31 29 28 29 32 36 38 39 41 43 42 40 39 39 39 41 41 41 44 48 49 49 49 46 43 41 41 41 41 41 40 40 40 40 40 40 41 42 42 42 43 43 43 43 43 42 43 42 42 42 42 43 43 43 43 43 43 43 42 41 41 41 40 39 37 36 33 31 30 30 29 29 28 26 24
13 16 19 21 23 24 24 25 27 29 32 32 30 29 29 29 30 33 35 38 41 43 42 41 41 41 41 41 41 41 44 47 51 52 50 44 41 40 41 41 41 40 40 41 42 42 42 42 42 42 43 44 44 43 44 44 44 44 44 43 43 43 44 44 45 45 45 44 44 44 44 43 44 44 43 42 40 38 35 34 33 32 32 31 29 26
13 14 16 19 22 24 25 26 27 29 30 31 31 32 31 30 29 30 31 33 37 41 43 43 43 44 43 42 43 43 43 46 48 50 50 46 41 39 40 41 41 41 41 41 42 43 44 43 43 43 43 44 44 44 44 45 45 46 46 45 44 44 45 46 46 45 45 45 46 46 46 46 46 46 46 45 44 42 40 38 37 36 35 34 33 31
14 15 16 17 19 22 25 27 29 30 29 29 31 33 32 31 31 32 32 31 32 33 36 39 42 44 44 43 43 43 43 44 45 48 49 46 42 39 40 41 43 43 44 44 43 44 45 45 44 44 44 43 44 44 44 44 45 46 46 46 46 46 46 46 46 46 46 46 46 46 46 47 47 47 47 47 47 46 44 42 40 39 37 36 35 35
15 16 17 18 20 21 23 25 28 29 30 32 33 32 30 30 31 32 33 33 32 31 32 34 37 41 44 46 46 44 43 42 42 44 47 47 45 42 42 43 44 45 46 47 46 46 46 46 46 46 46 45 45 45 44 44 45 45 46 47 47 47 47 46 46 46 46 46 46 46 46 47 47 47 48 48 48 48 47 46 44 42 40 38 37 37
18 18 18 19 21 22 24 25 25 26 29 32 32 32 32 32 32 32 32 32 32 32 34 35 35 37 39 43 46 46 45 46 46 45 46 48 49 47 44 44 45 46 47 48 48 48 49 48 48 48 48 47 47 46 46 46 46 46 47 47 48 48 48 47 46 46 46 46 46 46 46 46 47 47 47 47 48 48 48 48 47 46 44 42 40 38
20 21 20 20 22 23 24 25 27 28 30 30 30 31 33 34 35 35 35 34 33 34 35 36 37 36 36 37 41 44 45 47 49 50 49 49 50 49 48 47 47 48 49 50 50 50 50 50 51 51 50 50 49 49 49 49 48 48 48 48 49 49 49 48 48 47 47 46 46 46 46 46 46 47 47 47 47 47 48 48 48 47 47 45 43 41
20 21 21 22 23 24 25 26 28 30 32 32 31 32 32 33 35 37 37 37 37 37 37 37 37 36 36 36 38 41 44 46 48 50 50 51 51 52 51 49 48 47 49 51 52 52 52 52 53 53 53 53 53 53 52 51 51 51 51 50 50 50 50 50 50 49 48 48 47 47 46 46 47 47 47 47 47 47 47 48 48 47 47 47 46 44
22 23 24 24 24 25 27 29 29 30 32 34 34 34 34 33 34 35 36 37 38 38 39 39 39 38 38 38 38 40 42 43 45 47 49 51 52 52 52 51 50 49 48 49 51 52 53 53 54 54 55 55 55 55 55 55 54 53 53 53 53 52 52 52 52 51 51 50 50 49 49 48 48 48 48 48 48 48 48 48 48 48 47 47 47 46
26 27 28 27 26 27 28 29 30 30 31 33 34 35 35 35 35 35 37 37 38 37 38 40 41 41 42 41 40 40 40 40 41 44 46 48 49 49 50 50 50 50 50 50 50 51 52 53 53 54 55 55 56 56 56 57 57 56 56 56 55 55 54 54 54 54 54 53 53 53 52 51 51 50 50 50 49 49 49 49 49 49 48 48 48 48
29 30 30 30 30 29 29 30 31 32 33 33 33 34 36 36 36 36 38 40 40 38 37 37 39 40 42 43 43 43 43 42 41 42 44 45 45 45 46 47 47 48 49 49 50 50 51 52 52 52 53 53 54 54 55 56 57 57 57 57 57 57 57 57 57 57 57 57 56 56 55 55 54 54 53 53 52 52 51 51 51 51 50 49 49 49
30 30 29 29 30 31 30 30 32 34 34 34 34 35 36 37 37 36 37 39 41 40 39 38 38 38 39 40 41 42 44 45 45 44 44 44 44 44 44 45 45 45 46 46 47 49 50 51 51 51 51 52 52 53 54 54 55 56 56 57 58 58 59 59 59 59 59 59 59 59 59 59 58 58 57 57 56 55 54 54 53 53 52 51 51 50
Wind_Direction
210 210 212 212 211 210 206 201 195 197 196 181 175 190 256 293 258 237 236 234 237 252 249 238 238 237 238 228 204 192 187 190 194 194 197 202 205 202 197 196 198 203 204 202 205 201 192 188 180 178 184 188 187 181 179 179 179 180 176 173 170 166 167 166 158 152 145 139 134 135 138 130 128 125 112 104 102 104 103 96 93 92 90 90 89 86
211 212 213 211 211 210 208 205 198 199 201 187 179 185 193 235 249 245 241 243 245 248 250 243 243 237 232 250 214 195 196 196 195 198 198 199 203 199 195 202 207 205 204 203 205 203 199 198 188 181 184 188 188 185 184 182 182 187 186 180 179 174 171 171 167 163 157 149 144 143 147 146 138 130 120 115 111 109 110 103 95 94 93 91 90 87
212 211 210 210 211 210 209 206 200 199 201 196 186 180 189 209 224 238 237 242 251 241 240 239 237 230 222 239 207 189 194 196 195 196 196 201 205 196 188 200 216 213 205 202 204 203 201 203 198 190 189 189 190 190 189 186 185 190 190 187 186 183 177 175 173 173 172 164 158 154 153 155 145 135 130 127 122 117 116 111 101 98 96 92 92 92
212 211 209 207 209 210 210 206 202 201 200 199 189 179 195 210 210 229 234 238 250 237 232 233 228 224 211 210 200 188 187 189 193 195 194 196 196 193 192 197 209 213 209 207 206 205 203 204 204 200 197 193 193 194 193 190 191 193 194 193 192 189 185 181 178 178 184 183 175 168 159 153 150 144 143 139 133 130 128 121 110 106 103 97 96 97
212 210 209 208 209 209 209 206 204 203 199 201 195 182 191 207 205 221 232 235 242 236 232 223 219 222 210 202 200 194 192 190 191 194 194 196 197 198 202 200 203 206 207 211 208 206 207 206 206 205 202 203 201 200 198 196 196 197 197 198 197 193 190 187 184 183 190 199 197 186 167 151 151 156 158 150 139 138 136 132 128 122 115 106 103 101
213 209 208 209 209 209 209 207 204 204 201 201 200 187 185 199 210 221 227 234 237 236 227 203 201 223 217 213 210 202 203 196 190 192 196 202 206 208 208 204 202 199 201 211 210 207 209 210 211 209 205 211 213 209 206 202 202 201 199 202 201 196 194 193 192 190 193 201 200 192 178 159 156 164 168 159 150 149 142 138 140 133 125 117 111 110
214 210 208 209 209 209 208 206 204 204 205 203 199 192 186 192 212 220 223 235 226 206 202 186 184 213 219 220 220 216 219 210 197 198 202 205 206 206 204 204 202 196 199 208 212 212 211 213 216 213 210 216 221 218 213 209 207 205 202 204 205 200 196 197 198 198 199 203 200 193 184 175 172 175 176 169 163 159 149 144 143 136 134 130 125 125
216 211 209 209 209 209 206 205 206 205 206 205 199 196 194 196 217 217 212 219 227 220 217 204 193 200 216 220 220 220 225 230 218 206 202 196 195 199 203 206 204 200 200 203 209 213 213 218 219 220 222 223 226 224 219 217 214 210 206 206 206 203 201 202 202 204 205 207 208 204 197 187 184 185 186 179 169 162 158 156 148 142 143 138 132 130
215 214 212 210 209 210 207 205 207 205 206 208 200 193 200 216 229 221 209 178 184 233 251 240 220 212 217 215 213 216 220 234 232 215 202 191 190 199 206 208 205 201 201 200 205 210 212 221 226 230 232 233 232 226 221 221 219 217 210 207 207 204 203 207 208 208 209 210 212 214 212 206 197 191 193 189 176 168 168 166 154 147 146 142 140 137
214 214 212 212 210 210 208 205 207 207 206 204 194 185 197 211 215 217 222 196 173 201 243 249 243 240 230 217 208 214 218 220 220 216 208 199 199 206 211 211 203 198 202 204 208 214 215 223 232 235 233 235 235 223 217 217 218 220 215 209 209 207 206 209 213 213 211 210 213 216 217 218 216 203 198 196 188 179 174 173 166 155 150 149 148 145
212 214 212 214 213 210 208 204 206 210 206 199 193 189 194 204 205 203 219 217 189 187 222 244 250 252 244 233 222 224 231 227 220 220 220 219 217 216 216 210 199 196 202 205 209 215 219 225 233 236 236 236 231 219 210 206 209 213 212 209 209 210 211 212 216 219 216 212 212 215 217 219 222 216 207 201 195 189 182 180 176 165 162 161 157 154
207 210 212 215 213 208 205 203 206 212 205 195 196 195 194 200 205 204 209 213 197 187 199 224 244 252 250 248 244 238 235 229 226 229 232 233 233 224 211 200 197 201 204 203 207 214 219 227 233 235 236 235 229 222 211 201 205 208 207 208 206 208 212 214 219 223 222 219 214 213 216 217 222 220 214 206 198 197 194 188 183 175 174 176 168 163
197 200 214 218 213 209 208 202 201 207 200 192 197 196 188 190 202 208 210 208 197 187 184 192 222 244 248 249 250 247 242 232 229 233 236 238 238 230 213 201 200 205 205 202 205 212 217 225 232 231 231 229 221 221 217 206 210 212 207 210 210 209 213 215 220 225 227 226 220 215 215 217 220 223 219 212 203 201 202 195 187 183 183 186 182 171
187 190 213 220 215 214 215 207 199 201 197 194 196 191 183 185 199 209 210 207 200 187 178 184 210 232 238 241 244 249 247 240 239 239 235 235 237 229 222 212 198 199 204 204 205 210 216 225 232 231 230 227 218 217 216 211 216 221 215 215 217 214 216 219 222 226 229 231 229 221 218 217 219 224 224 216 205 202 206 202 191 185 187 189 189 180
192 192 209 216 213 212 215 214 206 201 201 200 193 186 189 193 200 208 210 208 204 188 176 188 217 225 229 234 239 247 248 244 245 242 230 225 224 220 219 214 197 192 203 208 208 211 216 224 232 236 236 230 224 221 218 216 223 235 236 232 231 226 222 224 226 229 231 232 234 229 222 219 219 224 227 221 209 202 205 207 197 188 189 189 190 188
196 200 214 226 226 217 209 210 210 200 200 205 193 187 197 201 201 205 210 212 208 194 186 199 226 228 227 231 237 245 246 247 249 242 231 222 215 213 213 212 207 201 204 211 215 219 222 225 229 235 235 230 230 229 222 220 223 232 236 233 234 236 234 234 233 234 236 235 235 234 228 224 221 224 229 227 219 208 206 210 204 195 193 191 190 190
184 194 212 232 246 234 211 203 210 202 195 202 198 194 198 201 200 196 199 213 206 198 201 209 221 226 227 229 237 243 242 245 247 241 238 231 220 216 216 216 214 211 214 220 224 229 234 237 235 232 229 227 229 227 220 220 219 224 232 228 222 226 231 234 234 234 238 238 235 234 231 227 223 226 233 235 229 216 209 208 208 203 198 196 193 191
178 184 200 212 232 243 219 201 203 197 187 195 202 202 197 190 190 180 185 209 198 195 211 216 220 226 230 232 239 245 244 244 245 241 241 239 229 224 227 229 224 215 215 220 223 229 237 245 246 239 233 229 228 225 221 222 218 224 237 233 224 220 220 225 228 228 232 237 238 235 231 229 226 226 235 242 237 223 213 207 208 208 204 200 199 197
178 182 192 198 207 229 218 198 195 190 185 189 195 202 196 182 181 178 182 196 189 194 214 218 218 224 231 235 241 247 248 245 244 243 242 241 235 233 235 237 232 218 213 213 217 226 232 238 240 237 233 228 224 227 232 232 226 228 238 236 229 225 225 226 224 221 223 227 237 239 234 231 229 227 233 242 241 228 218 211 207 209 208 205 204 204
181 184 182 185 198 208 197 188 191 191 190 191 190 197 197 188 185 183 183 187 185 197 217 221 224 228 229 232 237 243 243 240 239 240 243 245 242 244 244 238 234 228 221 217 216 225 230 232 235 238 238 230 219 225 243 247 241 236 235 232 230 229 230 231 227 222 220 216 224 236 234 229 228 227 230 236 238 230 224 218 212 211 209 206 207 209
188 190 183 183 193 197 186 183 189 191 190 192 193 200 202 198 193 188 188 187 183 198 220 223 230 236 232 232 238 241 241 239 237 237 241 245 246 248 248 240 235 234 231 225 220 224 230 232 235 239 244 239 229 232 246 255 246 235 231 227 227 229 230 229 229 228 224 215 214 223 227 225 224 224 225 229 231 227 224 222 217 215 213 210 209 211
188 187 183 186 193 197 189 184 191 194 190 189 195 204 208 203 193 187 190 189 186 205 227 222 228 239 237 236 237 236 238 239 234 232 236 242 246 246 246 243 239 233 231 230 223 223 228 232 233 231 233 243 241 237 243 255 239 223 224 224 221 223 225 227 229 229 225 217 210 211 216 219 221 222 223 225 225 221 219 221 219 217 217 216 214 215
187 180 176 180 183 192 196 190 193 198 195 193 196 203 209 204 196 190 191 190 194 214 230 225 228 236 235 235 236 233 232 233 233 232 235 239 241 241 241 242 241 235 232 231 223 222 228 234 236 231 229 238 243 244 250 263 247 216 213 219 216 217 222 225 229 230 229 225 219 213 212 215 217 219 221 223 222 218 213 215 218 216 217 218 218 219
192 185 178 177 168 167 198 196 194 199 199 196 196 196 194 193 194 196 195 192 200 218 225 225 231 234 231 232 235 236 233 232 236 241 240 237 236 235 235 236 240 237 232 228 225 227 232 235 235 232 230 231 241 252 258 261 252 224 216 220 216 218 222 224 225 226 227 229 227 221 216 217 218 217 217 218 219 217 213 210 211 212 214 216 217 219
195 190 178 171 161 156 185 194 193 198 200 199 199 195 186 176 177 200 206 197 203 221 222 223 232 236 235 234 235 240 239 234 235 238 239 241 240 237 233 232 235 232 227 227 228 230 234 235 234 235 234 230 236 252 261 257 249 237 230 228 221 223 226 226 225 224 224 227 226 222 219 219 221 222 220 218 216 216 217 214 210 210 210 212 215 217
198 195 185 174 165 163 179 194 196 197 201 204 203 194 179 169 174 198 211 207 214 227 223 220 227 234 237 236 237 244 243 234 231 234 238 244 246 244 239 232 228 224 222 226 227 229 232 235 236 236 236 231 231 244 255 255 250 245 239 234 228 228 231 233 231 229 229 228 225 225 225 223 225 229 226 222 219 221 230 231 224 218 213 210 212 216
199 198 191 184 181 177 181 193 198 199 200 203 205 196 178 167 177 197 205 213 224 229 224 221 225 230 236 235 235 240 241 233 229 230 235 241 244 245 242 234 227 223 223 225 226 227 229 233 238 240 240 237 232 235 242 243 244 244 242 237 232 231 236 240 236 231 232 231 227 228 231 227 226 227 224 221 218 221 232 240 239 235 229 222 218 219
198 194 187 183 187 190 190 194 198 203 204 201 201 198 184 172 184 202 204 216 226 225 223 224 223 228 237 237 233 237 241 239 235 231 232 238 242 244 242 235 228 224 224 226 228 229 229 231 236 241 244 243 236 235 239 241 242 244 245 243 238 234 236 241 240 235 235 234 230 227 227 225 225 226 224 220 218 218 222 231 236 238 238 237 236 233
200 198 194 188 186 189 194 200 202 207 213 208 203 200 195 192 200 208 208 216 222 223 223 223 221 225 233 235 234 238 242 242 239 234 232 235 239 241 240 237 229 222 222 224 227 230 231 232 234 239 244 245 239 235 236 237 240 242 244 246 244 239 236 238 244 250 244 237 231 226 224 225 228 232 229 222 220 219 219 224 229 231 233 238 242 242
205 207 208 205 202 201 200 202 208 213 224 222 209 203 200 199 204 209 210 215 220 222 221 220 221 224 228 232 235 238 243 243 239 237 235 234 238 238 235 234 230 224 222 223 225 229 231 232 234 237 241 243 241 240 238 239 243 245 245 248 248 244 241 241 248 260 256 239 231 228 226 228 231 234 231 226 223 219 217 221 226 228 231 236 238 241
211 214 218 217 218 219 216 212 216 223 228 227 219 214 208 203 206 209 210 214 221 222 221 221 223 224 226 231 235 235 239 242 240 239 237 235 238 238 230 226 225 223 223 223 225 227 229 232 234 236 240 242 243 245 247 248 248 245 245 248 249 246 245 245 248 251 249 240 234 231 228 230 231 230 228 226 224 219 216 221 226 229 235 240 239 239
213 216 221 223 224 227 228 227 227 226 227 228 228 227 218 207 207 210 211 216 220 221 221 223 225 226 227 232 237 237 240 244 243 242 240 235 237 240 233 225 222 221 221 221 223 224 226 229 231 233 237 240 243 245 248 250 250 249 248 249 250 249 249 248 246 242 241 241 240 237 235 236 235 230 226 225 222 219 218 220 225 230 235 238 237 236
212 214 219 223 224 226 230 232 229 223 220 221 221 220 215 210 209 211 215 220 222 221 221 222 225 228 228 231 236 240 242 245 243 242 241 239 237 237 237 232 226 224 224 223 224 224 224 226 227 229 231 234 238 240 243 248 251 254 254 253 254 253 252 253 250 246 243 242 243 244 246 249 243 232 226 224 223 224 223 221 223 228 233 235 235 233
213 214 218 221 222 224 226 228 226 220 215 215 215 217 222 225 222 217 218 222 223 222 224 223 225 229 230 232 236 238 241 243 242 241 241 241 239 237 236 235 231 228 227 227 227 227 227 227 228 228 229 230 233 236 239 243 247 251 254 255 257 256 255 256 257 256 253 250 249 250 253 257 254 242 231 226 223 223 225 224 225 230 235 236 235 233
214 216 220 220 219 221 223 225 226 224 220 218 218 219 223 228 228 221 220 223 224 223 225 226 227 230 232 234 235 237 240 242 243 244 243 241 240 238 237 236 235 232 230 230 230 229 229 230 230 231 231 231 232 234 236 239 241 246 250 253 256 257 257 257 258 259 259 257 255 255 254 257 258 253 247 241 234 232 233 231 231 233 235 235 233 233
215 216 220 220 218 218 220 223 225 227 228 225 222 220 220 223 227 225 224 229 230 227 228 230 230 232 234 236 237 240 243 245 247 248 246 243 240 239 239 240 240 238 236 235 234 233 232 232 232 234 235 235 235 235 236 238 239 242 246 250 254 257 258 258 258 260 261 261 259 258 257 257 258 257 255 254 251 251 252 249 245 241 238 234 233 234
219 219 220 221 220 217 218 222 224 227 231 230 224 220 219 221 225 227 229 234 235 232 231 232 232 233 236 238 240 242 245 247 248 248 247 244 241 239 240 241 241 241 240 239 239 237 236 235 235 235 236 238 238 238 238 239 240 241 243 246 250 254 257 258 259 260 262 262 262 262 261 260 259 257 257 259 260 260 260 260 257 253 246 240 238 238
223 223 222 223 225 222 220 223 226 227 230 232 229 225 224 224 226 229 232 236 237 234 233 232 231 232 235 238 239 240 242 245 247 245 243 242 241 240 240 241 241 242 241 240 240 239 238 238 237 236 237 239 240 241 241 241 241 242 242 243 245 248 252 255 257 259 260 261 262 262 263 263 261 259 259 261 263 262 259 259 260 259 255 249 245 243
228 227 225 226 229 229 226 227 229 229 229 231 231 228 227 228 229 229 231 235 237 236 234 232 231 231 233 235 237 238 238 240 243 242 240 239 239 239 240 240 240 240 241 240 240 240 239 239 238 238 238 239 240 242 243 243 243 244 244 244 245 246 248 251 253 255 257 259 260 261 262 264 264 263 262 262 262 262 259 257 260 262 259 256 254 252
235 233 231 230 232 234 231 229 231 233 233 232 230 227 226 228 230 230 231 235 239 238 236 234 233 233 233 232 234 237 237 238 241 242 240 240 239 239 240 241 240 240 241 241 241 241 240 240 239 238 239 240 240 241 243 244 245 246 246 246 247 247 248 250 251 253 255 257 258 260 261 262 263 264 263 263 262 262 260 258 259 261 260 258 257 255
242 240 237 234 235 237 237 234 233 234 235 234 233 232 230 231 233 235 235 237 239 238 237 236 236 237 235 232 231 235 237 238 240 242 243 242 239 238 239 240 240 241 241 242 243 243 242 242 241 240 240 240 240 241 242 244 246 247 248 248 248 248 249 251 252 253 255 256 258 259 260 261 262 263 264 264 264 263 261 259 259 259 260 261 261 257
252 250 246 241 238 238 239 239 238 237 236 237 237 238 237 234 236 239 240 239 240 240 239 238 238 239 238 234 231 233 236 238 240 241 243 242 239 236 236 236 237 239 240 242 243 243 244 244 243 242 242 242 242 242 242 244 245 247 248 249 249 248 249 251 252 253 254 255 256 258 260 260 261 263 264 265 265 264 263 261 260 260 261 262 263 262
264 258 254 249 245 242 241 242 243 241 239 239 240 241 240 238 238 241 242 241 242 244 244 242 240 239 239 239 237 235 237 239 240 240 241 241 239 236 235 236 237 237 239 241 243 244 246 247 247 246 244 244 244 245 245 245 246 248 249 249 250 250 249 250 251 252 253 253 254 255 257 259 260 262 263 265 266 266 265 264 262 262 261 261 260 261
270 266 262 257 252 247 244 245 246 245 243 242 243 243 243 243 243 244 244 243 242 243 245 245 244 241 239 239 241 240 239 240 240 241 241 241 240 237 235 236 238 238 239 240 242 244 246 248 249 249 248 247 247 247 248 248 248 249 250 250 251 251 251 251 251 252 253 253 253 253 254 255 257 259 261 263 264 266 266 266 264 263 262 260 259 258
272 270 269 265 260 255 251 249 247 247 246 245 245 246 246 246 246 247 247 246 244 242 243 245 247 246 241 239 240 242 243 243 244 243 241 241 240 239 237 237 240 241 242 242 243 245 247 248 249 250 251 251 251 250 251 251 251 251 251 252 252 253 253 253 252 252 253 253 254 254 254 254 255 256 257 259 261 263 265 266 266 265 264 262 260 259
270 269 268 267 264 261 257 253 249 247 245 244 244 246 247 246 245 245 246 246 245 244 244 245 248 249 247 243 241 241 243 245 246 246 244 242 242 242 241 240 242 244 245 246 246 246 247 248 249 250 251 252 253 253 253 253 253 253 253 253 254 254 255 255 255 254 253 254 254 255 255 255 255 255 256 256 258 260 262 264 265 266 266 265 264 262
271 271 269 266 264 263 261 257 252 250 248 246 243 244 246 246 246 245 244 244 246 246 246 247 248 249 249 246 244 242 242 243 246 247 248 247 246 246 246 245 245 245 247 248 248 248 248 249 250 251 252 253 253 254 255 255 255 255 255 255 255 255 256 257 257 256 255 255 254 255 255 255 256 256 256 256 257 257 259 261 262 263 265 266 266 265
277 275 270 264 261 261 261 260 257 255 254 251 247 245 245 246 247 247 246 244 244 246 248 249 250 250 249 246 245 245 245 244 245 247 248 248 248 249 250 250 249 248 247 248 249 250 251 251 251 251 252 253 254 254 255 255 256 256 256 257 257 257 257 258 258 259 258 257 256 255 255 255 255 256 256 257 257 257 257 258 259 261 261 263 264 264
280 277 273 268 262 260 260 260 258 255 253 252 251 249 246 244 245 248 249 247 245 244 246 248 250 250 250 249 248 247 246 246 246 248 248 248 248 248 249 250 250 250 249 249 249 250 251 251 252 252 253 253 254 254 255 255 255 255 256 256 257 257 257 257 258 258 259 259 258 257 257 256 255 255 255 256 256 256 256 256 257 258 259 260 261 262
278 276 274 270 265 262 260 259 255 252 250 251 253 254 251 247 245 246 249 250 248 245 244 246 248 250 251 252 251 251 250 249 248 248 249 249 248 248 248 249 249 249 249 249 249 249 249 250 251 252 252 253 253 254 255 256 256 256 256 256 257 257 257 257 257 257 258 258 258 258 258 257 257 256 256 256 256 256 256 256 256 256 257 257 258 260
278 277 274 270 267 264 262 260 256 254 252 252 252 253 253 253 250 248 249 251 252 251 248 247 248 249 250 251 251 252 252 251 250 249 249 250 250 249 248 248 249 249 249 249 249 248 248 249 249 250 251 252 252 253 254 255 256 256 257 257 257 257 258 258 258 258 258 258 258 258 258 257 257 257 257 257 257 256 256 256 256 256 256 256 256 257